Theta_e
304 305 305 304 304 304 304 304 305 302 302 302 303 305 304 306 306 305 302 302 302 302 303 304 304 307 307 307 310 310 311 310 311 319 316 316 316 317 318 319 319 318 317 318 318 319 318
305 306 305 304 303 304 304 304 303 301 302 304 304 303 303 304 304 302 301 302 302 302 303 303 303 307 308 309 307 310 312 310 308 312 319 318 317 317 317 318 319 319 317 317 318 318 319
305 304 304 304 302 302 302 302 302 302 302 301 302 302 301 302 302 301 300 301 302 302 302 303 305 308 310 308 307 307 308 308 307 307 308 315 318 318 317 318 318 318 318 318 318 319 318
305 305 304 303 303 302 301 302 301 301 301 302 303 302 302 301 301 300 299 300 301 302 304 305 307 310 311 308 308 308 309 310 311 309 308 308 313 317 318 319 319 318 318 318 318 318 319
304 304 304 303 301 303 301 301 301 300 301 302 301 303 301 300 300 299 298 301 303 306 306 308 310 312 313 310 310 309 309 311 311 310 309 309 310 314 317 319 319 318 318 318 318 319 320
303 304 303 303 303 303 302 302 300 301 301 301 302 302 299 298 298 298 299 305 309 309 309 311 312 313 313 311 311 311 314 312 310 312 313 311 311 312 317 318 322 319 318 319 320 320 320
302 303 303 304 302 302 302 302 303 302 301 301 301 300 299 298 298 298 301 307 309 312 312 312 312 311 311 310 308 310 313 315 314 315 317 314 313 311 317 318 319 318 319 319 320 321 321
301 301 301 302 302 303 302 301 302 301 299 300 298 299 299 298 298 298 303 310 308 307 309 308 309 309 308 309 309 308 312 315 316 315 316 316 317 314 315 317 317 317 319 321 321 321 320
301 301 301 301 300 302 302 302 301 300 299 298 297 299 298 297 298 303 308 307 308 308 309 310 310 310 311 310 310 309 310 315 316 318 317 319 316 313 315 317 319 319 319 320 320 320 320
301 300 301 301 300 301 299 301 301 299 300 298 297 298 297 297 302 306 307 307 308 307 311 315 312 313 313 310 310 309 309 312 315 319 319 320 320 315 317 320 317 318 318 318 320 321 321
300 300 300 299 299 299 299 298 299 299 299 299 297 297 297 297 301 304 306 306 307 308 317 310 312 312 312 312 311 310 308 311 316 318 320 322 320 316 319 320 318 318 320 321 321 320 321
299 299 299 300 299 298 297 298 298 298 298 299 296 297 298 299 302 304 306 306 308 314 318 309 311 312 312 313 313 311 308 309 313 315 317 316 314 317 318 316 319 319 320 321 322 322 323
297 297 298 298 299 299 298 298 297 298 298 298 296 296 297 299 301 303 304 307 314 313 309 309 310 310 310 310 312 312 311 308 311 314 316 314 315 315 314 316 316 317 321 323 325 326 326
297 296 297 298 299 299 297 297 298 297 298 298 297 297 298 299 300 302 305 309 313 309 311 310 309 309 306 307 312 314 313 313 309 309 311 318 320 317 315 316 319 316 319 324 332 331 325
296 297 297 298 298 298 299 299 298 298 297 297 297 298 299 299 300 302 305 310 307 308 308 308 308 306 306 309 310 313 315 315 314 311 311 315 317 315 316 316 318 318 320 319 322 324 327
296 295 296 297 297 297 296 296 297 296 296 297 298 299 299 300 302 303 306 307 308 308 308 308 307 305 308 309 310 312 315 316 315 313 312 312 314 314 314 316 316 319 318 321 321 328 330
295 296 296 296 296 296 297 297 298 297 296 297 298 299 299 300 302 305 305 306 306 307 306 308 307 306 308 309 310 311 315 317 314 312 313 314 315 315 316 315 318 319 320 320 322 322 328
294 295 296 296 296 296 296 297 297 297 297 297 299 300 301 302 306 304 305 306 306 306 306 305 307 307 309 309 310 310 311 313 311 311 316 317 316 316 315 317 317 317 320 320 325 325 324
295 295 295 296 296 296 296 296 296 295 296 297 301 300 298 303 306 306 305 304 305 305 305 305 306 306 307 308 308 309 310 310 309 310 312 311 317 316 315 318 318 320 318 320 322 326 331
295 295 295 295 296 296 296 295 295 296 295 297 299 301 300 304 304 305 305 306 304 304 304 305 305 306 306 306 307 308 309 310 309 310 310 311 316 320 318 316 321 321 319 320 323 328 328
295 295 295 295 295 295 296 296 296 295 296 296 298 300 301 304 304 304 304 306 306 304 305 304 305 306 306 307 307 307 308 308 308 311 309 313 318 319 320 321 318 316 318 320 325 326 327
294 294 295 295 295 295 295 295 295 295 295 296 298 300 299 300 302 304 303 304 304 306 304 305 305 305 305 306 306 306 307 307 309 312 311 311 318 315 319 320 319 319 319 318 321 320 318
294 294 294 295 294 294 295 296 295 294 295 296 296 297 301 300 301 302 306 304 303 303 304 306 306 306 305 306 308 309 309 309 310 311 312 312 312 315 320 319 319 321 319 321 320 321 321
295 295 295 295 295 294 295 295 295 294 296 296 296 298 300 300 299 301 302 303 304 302 303 303 306 308 307 307 308 308 308 308 307 308 309 311 311 314 318 318 321 317 317 317 318 317 317
295 295 295 296 296 296 295 295 295 295 295 296 296 296 300 300 298 299 300 302 303 304 304 304 305 306 308 308 308 306 308 308 308 308 308 310 311 315 321 320 318 315 314 315 319 320 320
294 295 296 296 296 297 294 295 295 295 295 296 296 297 299 301 300 298 300 300 304 304 305 305 306 307 308 307 307 307 308 308 308 309 309 310 312 313 316 319 318 315 314 313 316 321 316
294 294 295 296 296 297 297 295 295 295 295 296 296 296 298 301 299 299 300 301 301 302 305 306 307 306 306 307 307 308 309 308 314 311 312 312 313 314 315 317 316 312 314 314 319 320 317
294 295 295 296 297 297 297 296 296 296 295 295 295 296 297 298 298 299 300 301 301 304 305 307 307 306 305 306 309 308 310 310 312 313 312 311 313 315 313 314 316 313 313 316 319 316 316
295 296 296 296 297 298 297 297 297 296 296 296 296 297 297 298 299 299 299 299 300 302 304 305 306 307 306 307 307 308 311 313 312 314 313 314 312 313 311 312 317 317 318 316 316 315 314
Wind_Speed
9 7 9 8 7 11 11 12 12 15 14 17 18 18 20 20 22 24 26 26 27 26 26 26 25 23 17 9 19 33 22 9 9 5 10 14 18 21 24 22 22 26 25 24 24 22 18
10 9 9 10 9 10 11 13 14 17 16 15 17 21 23 23 24 26 29 29 29 29 29 28 26 18 12 18 16 13 12 7 12 11 9 14 13 18 22 24 23 24 24 24 23 23 17
11 13 10 9 12 12 13 13 13 16 18 20 19 20 22 24 27 27 30 32 33 32 32 29 21 11 15 25 17 25 21 12 12 10 10 16 16 17 17 24 21 24 25 22 23 19 22
13 11 10 11 13 13 14 12 14 17 18 19 18 18 21 23 27 30 31 32 35 33 28 19 11 10 9 16 20 18 17 18 20 17 16 13 14 14 15 16 20 21 19 20 21 21 20
13 13 12 12 14 13 14 15 16 20 16 16 19 20 23 26 29 31 33 34 32 23 19 13 7 13 10 7 9 7 9 17 13 19 16 11 6 12 13 13 13 14 16 21 23 22 21
13 14 15 14 12 13 12 14 18 16 18 17 17 19 23 26 27 31 33 36 27 27 16 13 17 9 9 4 9 14 8 7 13 7 11 12 5 11 13 13 15 15 19 20 20 20 22
13 14 14 14 13 15 13 13 15 16 16 17 19 21 23 24 24 27 32 21 10 5 11 15 10 15 27 21 24 14 10 5 9 9 13 13 6 16 20 17 21 15 18 24 23 20 16
14 14 15 15 15 15 14 17 17 15 20 16 22 20 23 25 24 24 24 9 9 5 14 19 23 20 25 20 10 11 14 7 7 13 10 9 17 20 20 18 20 20 19 23 25 16 1
15 14 16 15 17 15 15 14 15 14 17 15 21 18 23 23 21 17 11 8 11 14 7 14 10 11 1 3 8 15 13 11 12 9 12 15 14 13 19 22 21 19 20 20 23 20 14
16 17 16 15 15 14 16 14 15 16 15 15 18 19 22 22 14 13 10 9 12 8 5 8 10 6 9 3 4 11 15 11 4 9 8 11 17 17 19 23 19 19 19 23 23 19 12
15 17 16 15 15 15 15 16 17 16 15 15 17 19 18 14 16 11 10 14 12 2 6 8 9 7 6 6 5 6 18 13 12 8 3 4 10 18 17 23 18 17 12 19 22 17 16
13 15 15 14 14 16 19 18 17 16 15 14 16 17 15 16 13 15 13 13 11 3 7 7 6 5 12 14 10 6 5 12 6 9 14 16 8 10 22 23 19 18 6 24 21 14 14
15 16 16 16 16 18 19 18 16 17 15 14 14 17 16 14 15 15 14 11 5 7 5 8 4 3 7 11 7 13 9 16 10 6 12 15 19 22 19 16 16 18 13 8 7 12 11
14 18 18 17 18 18 16 16 16 17 17 14 16 15 16 19 16 13 13 5 10 9 13 6 3 8 13 10 6 10 12 10 18 14 7 2 5 18 10 15 14 13 16 8 6 4 14
16 18 18 18 18 16 16 17 15 14 12 16 16 18 21 19 16 14 5 10 6 15 8 4 8 12 12 6 4 6 13 12 12 18 13 5 6 12 14 13 17 18 20 25 17 12 8
17 19 18 17 17 18 18 16 15 14 14 13 14 17 20 18 19 13 6 16 16 14 3 7 10 6 8 1 3 6 1 9 3 4 12 9 11 14 16 16 18 17 13 12 6 4 6
19 19 19 17 16 14 13 14 14 13 12 9 10 5 15 24 19 5 10 14 17 19 10 5 10 13 7 9 6 9 2 7 5 6 9 11 12 7 13 15 17 14 15 12 12 11 4
21 19 18 17 17 17 17 17 15 14 11 7 6 4 6 25 8 6 10 17 22 16 13 12 9 12 12 10 11 10 14 3 5 7 8 8 7 10 14 8 4 14 17 15 6 13 12
20 19 20 19 19 18 18 17 18 15 12 4 3 9 22 13 8 12 15 21 22 19 16 13 11 11 14 11 8 10 13 6 8 6 9 11 5 9 6 9 8 14 17 19 13 4 4
21 20 19 18 18 19 19 17 16 14 14 9 4 3 9 6 9 15 17 18 19 18 20 21 16 16 14 14 13 10 10 3 3 7 12 10 9 11 9 7 5 11 16 19 18 7 7
22 22 21 21 21 19 20 18 18 17 14 13 3 6 4 6 13 16 18 10 18 18 18 14 16 20 13 13 14 14 15 14 15 5 4 3 7 9 14 16 17 21 14 14 12 14 5
23 22 21 22 21 21 21 19 20 20 15 14 3 5 9 10 15 14 17 18 19 16 18 14 15 16 14 16 15 14 14 11 8 10 7 3 3 11 6 12 12 16 12 13 21 20 12
24 24 24 23 22 22 22 21 20 20 19 9 8 16 8 8 11 12 8 19 21 16 17 13 13 15 14 10 7 11 9 10 8 9 6 4 5 5 4 12 11 10 11 16 13 12 12
26 26 26 25 24 24 24 25 24 24 24 21 10 6 5 11 12 12 17 12 15 15 17 14 12 11 13 1 6 7 11 13 15 15 13 12 4 4 4 4 4 4 3 14 6 4 6
28 28 28 29 31 32 31 30 28 28 27 28 20 6 4 9 11 17 16 14 14 13 12 15 12 6 5 4 3 6 10 14 20 20 18 14 10 3 4 4 4 5 4 6 13 5 11
30 30 30 31 35 36 36 34 32 29 28 26 26 19 6 5 12 18 17 14 10 10 10 13 7 3 4 2 2 4 8 10 8 7 23 18 14 9 5 5 3 2 11 7 6 7 10
34 32 31 31 30 26 30 37 34 33 30 29 18 26 9 3 13 16 12 11 10 10 7 6 3 2 3 2 2 7 12 14 5 15 12 16 14 15 10 6 7 5 3 2 8 5 9
33 32 32 31 29 25 22 30 36 36 34 32 26 25 20 5 15 19 18 15 13 10 5 1 4 3 2 3 4 6 5 6 5 7 11 15 11 8 11 8 12 6 1 3 11 10 10
33 33 32 33 33 28 24 25 32 36 37 35 24 25 26 7 8 12 28 30 18 14 2 3 2 3 4 4 5 4 4 3 7 4 3 8 12 6 10 9 6 12 15 12 12 11 10
Wind_Direction
318 319 318 323 329 323 326 326 323 329 327 328 329 327 327 325 322 320 322 322 320 318 316 318 320 324 334 271 248 286 275 294 300 233 245 226 227 237 237 238 246 249 251 250 253 262 268
311 304 305 314 314 315 321 322 320 319 325 331 332 327 324 323 321 321 322 320 317 314 314 316 313 311 280 265 267 278 283 274 266 284 246 240 244 253 246 247 243 254 254 251 255 253 261
296 297 310 303 314 313 313 312 321 321 322 321 318 320 322 321 320 320 319 319 315 312 312 311 302 280 259 252 276 290 291 257 262 279 291 275 276 269 252 252 257 252 271 276 250 252 253
300 288 296 300 302 309 311 308 316 312 319 322 318 317 319 322 319 320 318 317 312 309 313 303 283 244 254 265 280 288 279 254 251 259 256 277 292 299 292 286 267 261 255 259 257 246 244
296 303 299 295 302 299 302 308 314 309 312 313 318 324 327 323 321 321 319 314 307 302 306 285 251 211 261 283 235 294 270 266 247 242 242 269 282 285 280 265 263 266 256 246 247 254 241
303 297 292 295 293 305 295 306 308 306 309 313 320 322 323 321 322 322 319 313 306 295 281 248 243 256 239 262 349 329 297 267 233 239 253 256 227 240 240 245 232 229 233 247 258 236 231
291 301 305 295 291 296 295 302 307 308 305 316 322 324 326 323 323 321 321 327 13 181 275 269 260 260 287 297 299 293 250 243 232 222 227 231 239 233 225 232 250 255 280 290 288 236 240
288 292 294 297 304 295 292 296 295 297 305 311 317 316 324 323 321 315 312 317 21 334 299 279 261 259 264 267 273 251 264 215 196 231 216 221 227 252 242 234 236 246 260 272 278 272 261
279 285 284 286 291 295 292 297 300 298 303 312 312 320 321 316 319 311 284 327 330 3 278 295 227 235 276 289 245 242 248 230 238 275 233 220 232 238 302 245 240 238 248 259 270 285 273
290 283 284 283 289 298 302 284 293 295 294 305 313 317 316 317 305 317 302 327 340 356 281 189 197 170 172 189 228 232 230 245 210 215 252 261 254 249 280 279 239 237 242 257 267 273 265
289 290 285 284 282 290 298 298 289 297 292 297 307 313 311 305 302 303 307 327 324 316 277 140 133 122 159 220 337 152 205 243 210 184 160 239 233 206 247 271 265 260 289 291 285 260 267
301 301 294 284 285 291 291 288 289 290 293 289 301 307 307 303 247 265 311 317 305 245 244 155 158 201 211 221 197 114 173 221 209 216 202 254 251 222 238 243 249 270 280 271 265 266 246
293 293 292 293 289 289 284 281 284 287 287 279 292 295 290 279 272 316 317 297 233 242 145 157 163 227 271 267 239 164 186 199 206 190 232 257 250 258 258 262 246 226 230 250 240 241 243
290 293 291 288 284 282 282 280 284 288 284 277 284 289 277 270 260 279 305 248 237 285 237 116 266 258 279 289 241 171 188 216 210 223 279 215 289 221 237 234 207 227 225 231 197 243 241
291 291 290 285 284 285 281 277 280 284 288 286 283 280 265 254 241 245 248 226 228 231 299 354 307 262 257 184 239 246 205 215 212 205 231 213 246 197 199 245 246 186 219 247 275 289 285
286 292 289 288 285 282 282 278 277 285 282 282 279 288 277 255 207 234 226 237 236 269 307 300 275 280 292 153 307 247 288 347 46 14 211 257 275 269 233 190 238 249 224 241 228 242 215
284 285 283 282 283 284 280 277 278 274 280 274 273 271 268 217 192 206 225 225 242 269 286 243 268 275 270 297 283 298 148 123 20 350 305 270 248 262 298 199 206 227 239 226 246 225 190
282 282 280 279 276 276 272 271 269 269 262 232 247 240 264 173 193 213 230 231 258 266 284 240 273 282 289 297 294 278 279 92 97 9 334 323 263 244 253 265 316 267 244 233 242 210 249
280 278 277 276 274 272 269 265 264 254 231 232 247 240 264 257 212 225 234 239 248 261 255 269 245 248 265 264 274 260 260 79 91 55 30 346 271 253 272 287 263 242 226 227 232 270 261
275 273 274 273 272 270 269 267 257 245 234 213 284 242 232 216 246 257 237 235 249 234 251 270 265 268 247 255 247 263 280 233 175 343 99 333 270 279 253 274 250 245 207 221 238 218 230
276 272 270 270 265 264 262 257 251 244 235 212 241 243 236 221 224 233 251 268 242 241 224 232 251 255 255 260 261 257 257 273 277 221 97 141 285 328 307 291 275 226 255 184 202 230 189
278 274 270 271 264 261 260 254 249 239 226 220 231 239 261 250 259 251 227 240 260 257 256 229 245 255 248 251 262 275 290 271 300 358 12 233 277 314 306 299 282 272 216 246 190 213 235
275 273 273 271 265 259 252 249 247 237 213 211 225 268 284 281 286 269 245 241 238 251 259 267 261 276 252 284 349 322 312 290 231 279 286 273 312 331 294 323 315 257 229 186 213 264 238
278 276 273 270 264 256 250 244 239 238 221 215 219 228 239 253 259 263 279 242 257 244 252 259 249 210 260 77 288 270 279 269 268 256 253 257 289 289 291 295 234 348 226 236 234 277 317
279 277 274 271 265 254 248 243 239 236 227 223 229 200 259 246 253 272 271 277 270 247 261 266 266 302 340 206 273 299 255 247 245 242 240 230 227 254 267 248 289 291 303 290 201 141 70
280 280 278 274 274 259 237 238 236 234 226 221 226 235 244 277 245 258 269 267 279 283 280 270 72 27 2 164 73 249 257 244 226 221 215 217 210 202 226 252 256 189 211 180 281 140 65
284 282 280 281 284 282 240 230 229 226 223 216 225 221 229 259 255 271 265 298 269 258 248 292 146 139 302 100 231 262 254 251 264 234 178 199 197 206 222 241 266 237 91 298 209 100 65
282 281 281 282 282 274 258 232 227 223 223 215 224 221 210 243 261 271 268 256 282 283 250 81 140 189 153 168 231 241 260 258 250 238 202 188 194 195 218 229 242 106 215 321 97 76 70
283 280 280 278 277 268 255 234 226 222 219 217 225 219 218 234 266 284 262 261 266 271 276 219 275 325 206 226 241 278 263 287 303 284 174 225 203 185 185 214 83 73 89 82 91 87 73